Flag for U.S.A. Weather past 2 weeks in Seattle, Washington, U.S.A.

Now
60 °F

Passing clouds.


Feels Like: 60 °F
Forecast: 51 / 64 °F
Wind: No wind

Location: Seattle Boeing Field

Current Time: Mar 26, 2015 at 9:37:09 PM

Latest Report: Mar 26, 2015 at 8:53 PM


Visibility: 10 mi

Pressure: 30.14 "Hg

Humidity: 65%

Dew point: 48 °F

Location of SeattleLocation

Historic Weather in Seattle — Graph

°F

Seattle temperature yesterday

Maximum temperature yesterday: 61 °F (at 4:53 PM)
Minimum temperature yesterday: 48 °F (at 4:53 AM)
Average temperature yesterday: 55 °F

Past Weeks' High & Low Weather Summary

 TemperatureHumidityPressure
High71 °F (Mar 26, 3:53 PM)89% (Mar 23, 3:53 AM)30.43 "Hg (Mar 23, 3:53 AM)
Low43 °F (Mar 23, 7:00 AM)39% (Mar 26, 4:53 PM)29.62 "Hg (Mar 15, 4:53 PM)
Average54 °F71%30.08 "Hg
* Reported Mar 11 7:53 PM — Mar 26 7:53 PM, Seattle, Weather by CustomWeather, © 2015

Note: Actual official high and low records may vary slightly from our data, if they occured in-between our weather recording intervals... More about our weather records

Advertising

Seattle weather history for previous 24 hours

 ConditionsComfort  
Time TempWeatherWind HumidityBarometerVisibility
7:53 PM
Thu, Mar 26
62 °FSunny.3 mph62%30.13 "Hg10 mi
6:53 PM69 °FSunny.3 mph45%30.13 "Hg10 mi
5:53 PM70 °FSunny.5 mph44%30.14 "Hg10 mi
4:53 PM71 °FSunny.7 mph39%30.16 "Hg10 mi
3:53 PM71 °FSunny.No wind44%30.18 "Hg10 mi
2:53 PM70 °FScattered clouds.6 mph47%30.20 "Hg10 mi
1:53 PM69 °FScattered clouds.5 mph51%30.22 "Hg10 mi
12:53 PM68 °FPassing clouds.No wind55%30.24 "Hg10 mi
11:53 AM65 °FScattered clouds.No wind63%30.25 "Hg10 mi
10:53 AM64 °FScattered clouds.3 mph65%30.27 "Hg10 mi
9:53 AM61 °FScattered clouds.No wind70%30.27 "Hg10 mi
8:53 AM57 °FPartly sunny.No wind78%30.27 "Hg10 mi
7:53 AM54 °FClear.No wind83%30.28 "Hg10 mi
6:53 AM52 °FPassing clouds.3 mph86%30.28 "Hg10 mi
5:53 AM53 °FPassing clouds.5 mph86%30.29 "Hg10 mi
4:53 AM55 °FPassing clouds.8 mph83%30.29 "Hg10 mi
3:53 AM56 °FOvercast.10 mph84%30.29 "Hg10 mi
2:53 AM58 °FPassing clouds.7 mph78%30.30 "Hg10 mi
1:53 AM57 °FPassing clouds.9 mph81%30.29 "Hg10 mi
12:53 AM58 °FMostly cloudy.8 mph81%30.30 "Hg10 mi
11:53 PM
Wed, Mar 25
58 °FPartly cloudy.6 mph81%30.29 "Hg10 mi
10:53 PM58 °FMostly cloudy.13 mph81%30.29 "Hg10 mi
9:53 PM58 °FOvercast.12 mph84%30.29 "Hg6 mi
Weather by CustomWeather, © 2015

See weather overviewHow to use our weather pages